EST,Max TemperatureF,Mean TemperatureF,Min TemperatureF,Max Dew PointF,MeanDew PointF,Min DewpointF,Max Humidity, Mean Humidity, Min Humidity, Max Sea Level PressureIn, Mean Sea Level PressureIn, Min Sea Level PressureIn, Max VisibilityMiles, Mean VisibilityMiles, Min VisibilityMiles, Max Wind SpeedMPH, Mean Wind SpeedMPH, Max Gust SpeedMPH,PrecipitationIn, CloudCover, Events, WindDirDegrees
2013-1-1,77,66,54,58,56,53,97,74,50,30.23,30.12,30.05,10,9,3,20,6,26,0.00,3,,168
2013-1-2,78,68,59,67,64,57,100,91,62,30.08,30.05,30.01,10,7,1,13,5,,0.00,3,,218
2013-1-3,70,65,60,66,63,57,100,95,83,30.18,30.09,30.04,10,3,0,15,4,20,0.32,8,Fog-Rain,64
2013-1-4,60,58,55,59,56,54,97,92,83,30.29,30.24,30.17,10,6,2,12,8,,0.14,8,Rain,31
2013-1-5,72,64,57,60,56,50,93,80,61,30.31,30.26,30.19,10,10,6,10,8,,0.00,7,,34
2013-1-6,75,68,62,67,63,60,100,90,73,30.20,30.15,30.09,10,8,0,10,5,,0.02,5,Fog-Rain,44
2013-1-7,66,62,59,64,58,53,97,85,72,30.22,30.17,30.12,10,9,1,15,8,22,0.03,8,Rain,54
2013-1-8,81,72,62,67,64,60,94,80,58,30.23,30.17,30.14,10,10,10,8,5,,0.00,2,,69
2013-1-9,82,75,68,70,67,64,96,82,56,30.30,30.23,30.18,10,10,6,14,5,,0.00,3,,85
2013-1-10,81,74,68,68,66,62,96,81,52,30.30,30.27,30.22,10,10,7,15,7,,0.00,3,,101
2013-1-11,82,73,64,66,63,60,100,76,46,30.26,30.20,30.14,10,10,10,17,7,18,0.00,2,,122
2013-1-12,82,74,66,68,65,62,93,79,52,30.19,30.14,30.09,10,10,10,13,7,,0.00,2,,114
2013-1-13,80,73,66,66,64,62,93,77,54,30.17,30.11,30.07,10,10,10,10,7,,0.00,1,,142
2013-1-14,80,72,63,65,61,57,96,74,47,30.19,30.15,30.12,10,10,10,13,5,,0.00,2,,143
2013-1-15,79,70,62,65,62,59,96,79,54,30.16,30.11,30.07,10,10,9,12,5,,0.00,1,,153
2013-1-16,81,72,62,65,62,57,100,82,44,30.12,30.06,30.02,10,8,1,12,4,,0.01,0,,173
2013-1-17,71,63,54,68,58,43,100,85,62,30.17,30.08,30.00,10,7,2,24,10,32,0.17,6,Rain,260
2013-1-18,62,53,44,54,45,35,76,70,59,30.33,30.27,30.18,10,10,10,21,14,28,0.00,7,,28
2013-1-19,73,64,55,60,55,47,83,72,59,30.29,30.22,30.14,10,10,10,14,9,18,0.00,6,Rain,50
2013-1-20,73,66,60,62,58,54,90,79,64,30.19,30.13,30.06,10,10,10,9,7,,0.00,7,,17
2013-1-21,73,66,60,61,56,51,86,73,59,30.12,30.08,30.04,10,10,10,15,6,,0.00,3,,343
2013-1-22,64,60,57,51,40,32,72,48,33,30.30,30.21,30.09,10,10,10,13,10,17,0.00,0,,27
2013-1-23,69,60,50,46,39,32,83,52,32,30.39,30.33,30.29,10,10,10,10,7,,0.00,0,,15
2013-1-24,70,58,46,54,49,44,100,76,41,30.36,30.30,30.27,10,9,2,13,3,,0.00,0,,359
2013-1-25,72,60,48,57,50,47,100,87,41,30.33,30.27,30.21,10,5,0,7,1,,0.00,0,Fog,357
2013-1-26,73,60,48,57,54,48,97,81,53,30.30,30.24,30.20,10,9,5,15,4,,0.01,0,,327
2013-1-27,77,65,53,59,55,52,100,83,43,30.32,30.27,30.23,10,6,1,9,2,,0.01,0,Fog,69
2013-1-28,80,72,64,64,62,59,93,76,50,30.33,30.28,30.22,10,10,9,13,6,,0.00,3,,87
2013-1-29,81,72,64,66,64,62,97,80,52,30.24,30.18,30.10,10,8,0,15,7,18,0.00,4,Fog,138
2013-1-30,80,73,66,66,64,63,90,76,56,30.09,29.99,29.92,10,10,10,28,14,39,0.00,1,,167
2013-1-31,64,58,52,61,46,33,94,67,38,30.25,30.11,29.98,10,10,5,21,13,32,0.14,3,Rain,338